Location: Namasale
(1.5000°N, 32.6167°E)
Time: 21:49:44
(UTC+00:00)

Cosmos 1943 Rocket - Pass Details

Date: 09 April 2020
Orbit: 811 x 845 km, 71.0° (Epoch: 02 June)

Event Time Altitude Azimuth Distance (km) Brightness Sun altitude
Rises 16:56:20 0° 355° (N) 3,358 5.5 -16.0°
Reaches altitude 10° 16:58:51 10° 1° (N) 2,432 4.7 -16.6°
Maximum altitude 17:04:12 48° 75° (ENE) 1,088 2.4 -17.9°
Enters shadow 17:07:11 25° 136° (SE) 1,638 3.3 -18.6°
